{"data":{"norad_id":65107,"epoch":"2026-09-21T18:12:40.999968Z","epoch_age_seconds":56824,"freshness":"FRESH","line1":"1 65107U 25168B   26264.75880787 -.00000090  00000+0  72615-4 0  9995","line2":"2 65107  50.0021 339.4283 0008187  15.8840 344.2287 13.29326011 55537","mean_motion":13.29326011,"eccentricity":0.0008187,"inclination_deg":50.0021,"raan_deg":339.4283,"arg_perigee_deg":15.884,"mean_anomaly_deg":344.2287,"bstar":7.2615e-5,"rev_number":5553,"period_min":108.32557161179,"perigee_km":1143.1438123098,"apogee_km":1155.4692483463,"semimajor_km":7527.443530328,"source":"CELESTRAK","updated_at":"2026-09-22T09:00:30.136706Z"}}